Theta_e
304 293 291 291 293 295 297 297 297 298 297 296 295 293 293 292 294 297 297 295 296 293 292 292 293 294 295 297 298 300 300 299 299 298 298 298 299 299 299 300 300 300 300 301 302 301 301 301 301 300 298 298 297 297 296 296 295 295 294 294 293 294 294 293 293 292 291 290 289 289 289 289 289 289 289 290 289 289 289 290 290 289 288 288 288 288
305 293 293 296 297 298 298 299 299 298 297 296 294 293 292 292 291 295 296 293 295 292 290 293 293 293 295 297 298 299 299 298 299 298 299 299 300 300 299 300 300 300 301 301 300 300 300 299 299 298 297 297 296 295 295 295 295 295 294 294 293 293 293 293 293 292 291 291 290 290 289 289 289 289 289 288 288 289 290 290 289 289 288 288 287 287
293 292 296 298 300 299 299 298 298 296 295 295 293 291 290 292 294 297 295 293 294 292 289 292 291 293 295 297 298 298 299 300 300 300 300 300 299 300 300 299 299 298 299 299 299 299 299 299 298 297 296 296 297 295 295 295 295 294 294 293 293 293 293 292 293 292 291 291 291 290 289 290 289 289 290 289 289 289 289 289 288 288 288 288 287 287
290 294 298 300 300 298 297 297 296 295 296 293 291 288 288 292 291 288 294 293 292 291 289 290 290 292 295 297 298 299 300 300 301 301 301 301 300 299 300 300 299 298 299 297 297 298 298 298 297 296 295 296 296 295 294 294 294 294 294 293 293 293 292 292 293 292 291 291 291 291 291 291 290 289 290 289 289 289 288 288 288 288 288 288 287 287
293 297 300 300 299 297 296 296 295 292 292 293 293 291 290 291 293 292 292 291 293 292 293 290 289 289 292 292 294 297 299 299 300 300 300 300 301 301 302 301 302 299 299 298 297 297 296 296 296 296 295 295 295 295 294 294 294 294 294 293 293 293 292 292 293 292 292 292 291 291 290 289 288 288 287 286 286 287 287 287 287 287 287 287 286 286
295 299 300 297 296 298 296 294 294 294 291 291 294 294 293 294 293 293 295 294 290 289 291 291 285 285 290 293 294 294 295 295 297 297 297 299 299 300 299 300 301 302 300 299 298 297 297 296 296 295 294 294 294 295 295 294 294 294 294 293 293 293 292 292 292 292 292 291 290 288 287 285 285 285 285 285 285 285 286 286 287 287 287 287 286 285
296 299 299 297 296 295 295 293 294 296 291 288 290 296 296 295 294 293 293 292 284 282 290 292 282 283 288 290 292 293 292 293 295 295 297 298 299 299 297 299 299 301 300 299 299 298 296 296 295 295 294 294 294 295 295 294 294 294 294 293 293 292 292 292 291 292 292 290 289 288 288 287 286 285 285 286 286 286 286 287 287 286 287 286 286 285
296 294 294 296 296 294 293 292 295 295 291 288 292 293 295 294 293 293 293 291 288 291 292 291 289 283 285 289 292 294 292 293 293 294 296 297 298 298 298 298 299 301 301 299 299 298 297 296 296 295 295 294 295 295 295 294 294 293 293 293 293 292 292 292 291 291 291 290 289 288 287 287 286 286 285 286 287 287 287 286 286 286 286 286 285 285
296 294 293 294 292 290 291 295 297 297 292 291 292 295 293 295 294 293 290 287 286 284 283 286 290 282 283 287 293 293 290 291 292 293 294 296 297 297 298 299 300 301 301 300 299 298 297 296 296 295 295 295 295 295 295 294 293 293 293 293 292 292 291 291 291 291 291 290 289 288 287 286 287 286 287 287 288 287 287 285 285 285 284 285 285 285
297 296 297 296 292 290 294 289 291 298 293 294 293 294 294 293 292 292 286 286 284 282 281 284 289 281 284 290 289 290 291 290 292 293 295 296 297 297 299 298 301 301 300 300 300 299 298 297 296 296 296 295 295 295 295 294 293 293 292 292 292 291 291 291 291 291 290 289 289 288 287 286 286 287 287 286 285 285 285 284 284 283 283 283 284 284
295 294 297 296 294 295 288 289 291 291 293 294 294 293 291 290 287 286 286 284 282 279 283 287 288 286 281 287 287 287 289 292 293 294 295 296 296 296 298 299 301 301 300 299 299 299 298 296 296 296 295 295 294 294 294 293 293 292 292 292 291 291 291 291 291 290 290 289 289 288 287 287 286 287 286 285 284 284 283 283 283 283 283 283 283 283
293 294 292 294 297 293 293 290 292 293 294 294 288 286 287 284 284 283 283 283 277 279 283 287 288 288 279 280 290 293 294 295 295 294 294 294 296 297 298 299 302 300 299 299 299 297 296 295 295 295 294 294 294 293 293 293 293 292 292 292 291 291 291 290 291 290 289 289 288 288 288 287 287 287 286 285 284 284 283 283 283 283 282 282 282 282
288 290 293 294 296 296 291 291 289 291 291 292 286 286 281 280 281 278 279 275 276 279 282 286 288 284 283 289 291 293 292 295 295 295 295 296 296 297 299 300 301 300 299 299 298 297 296 295 294 294 294 293 293 293 293 293 292 292 292 291 290 290 290 290 290 289 289 289 288 288 288 288 288 287 286 285 284 284 283 283 283 282 281 281 281 281
287 290 292 293 292 294 294 287 284 283 285 288 285 283 280 276 276 274 277 279 279 283 284 284 288 284 287 289 294 293 293 295 296 296 294 294 294 296 298 300 300 299 299 298 298 297 296 295 295 294 294 293 293 292 293 292 292 292 292 291 290 290 290 290 290 289 289 288 288 288 288 288 288 287 286 285 285 284 284 283 283 282 282 281 281 281
283 285 289 291 287 294 294 293 292 288 285 287 288 287 284 282 278 273 276 276 278 281 282 284 279 277 278 284 294 297 298 295 297 298 295 294 295 295 295 299 299 297 296 297 297 297 296 296 295 295 294 293 293 292 292 292 292 291 291 291 290 290 290 289 289 289 288 288 288 288 288 288 287 287 286 285 285 284 283 283 283 282 281 281 281 281
287 287 292 296 292 294 292 295 296 291 286 286 289 290 284 283 285 282 283 281 279 279 280 279 279 281 287 292 293 297 297 297 296 296 295 295 295 296 298 298 298 297 297 297 296 296 296 296 295 295 294 294 293 292 292 292 292 291 291 291 290 290 290 289 289 289 288 288 288 287 287 287 287 286 286 285 285 284 284 283 282 281 281 280 280 280
287 284 290 292 292 290 289 291 295 295 283 286 288 283 286 289 288 282 283 283 281 279 280 282 283 287 291 293 294 294 293 294 295 295 294 294 295 296 297 297 296 297 296 296 296 296 296 295 295 295 294 294 293 292 292 292 292 291 291 290 290 290 290 289 289 288 288 288 287 287 286 286 286 285 284 284 283 283 282 282 281 281 280 280 279 279
286 288 288 289 287 288 286 288 290 290 292 287 281 284 291 291 288 284 277 280 278 276 280 284 281 283 283 282 289 292 291 293 293 294 295 296 296 295 296 297 297 297 296 296 296 297 297 296 296 295 295 294 294 293 292 292 292 292 291 291 290 290 289 289 289 288 288 287 287 286 286 285 285 285 284 283 282 282 281 280 280 279 279 278 279 279
293 285 288 288 287 289 289 291 289 292 292 286 284 291 285 279 278 283 281 274 274 274 277 281 283 283 285 285 289 286 289 291 293 294 295 295 295 294 295 296 296 296 295 296 296 296 297 296 296 296 295 295 294 293 293 292 292 292 291 291 290 290 290 289 289 288 288 287 287 286 285 285 284 284 283 282 282 281 280 279 279 278 278 278 278 278
290 286 286 284 286 288 287 286 281 283 289 290 289 285 288 282 280 280 282 280 279 277 276 279 282 281 288 288 288 289 290 291 292 292 293 294 294 294 295 296 296 297 298 297 296 297 297 297 295 295 294 294 294 293 293 292 291 291 291 290 290 290 289 288 288 287 287 287 286 285 285 284 283 283 282 281 281 280 279 279 278 278 277 277 278 277
287 288 283 285 284 288 281 283 284 286 284 282 283 280 284 282 284 282 283 281 279 276 276 276 277 283 288 291 291 291 292 292 292 292 293 294 294 295 295 296 296 297 298 298 297 296 296 296 294 293 293 293 291 291 291 291 290 290 290 289 290 289 288 288 288 287 286 286 285 284 283 283 282 281 281 280 280 279 278 278 278 277 277 277 277 276
286 284 285 284 281 282 287 289 289 290 290 287 287 284 286 283 280 278 278 284 281 280 277 277 277 284 291 294 293 292 293 293 293 294 294 294 294 294 294 294 295 296 298 299 298 297 296 295 294 291 289 289 289 290 290 290 289 288 288 289 289 288 288 287 287 286 286 285 285 283 283 282 281 281 280 279 278 278 278 277 277 277 277 276 276 276
292 286 287 285 286 288 290 292 292 293 292 291 290 286 289 286 285 282 277 280 281 282 284 284 280 283 292 292 291 292 293 294 294 293 294 293 293 294 295 295 296 297 298 299 299 298 296 295 295 293 292 291 291 291 289 289 289 289 288 288 288 288 287 287 287 286 285 284 283 283 282 281 280 280 279 278 278 277 277 277 277 277 276 276 276 276
294 285 284 286 289 290 290 286 287 289 291 288 287 287 286 285 286 285 284 284 283 283 282 282 279 283 292 291 291 291 291 294 293 293 293 294 295 295 294 295 296 296 296 297 298 297 297 294 292 291 290 290 289 288 288 289 289 288 288 288 288 287 287 286 286 285 284 283 283 282 281 280 279 278 278 277 277 276 276 276 276 276 276 275 275 275
288 285 287 283 282 283 286 286 283 284 286 284 285 288 289 289 287 287 286 285 283 284 284 281 276 282 292 290 292 290 291 292 292 292 292 293 293 293 294 294 295 296 296 295 295 296 295 291 290 291 291 290 290 289 288 288 288 287 287 287 287 287 286 286 285 284 283 283 282 281 280 279 279 278 277 277 276 276 276 276 275 276 275 275 274 274
290 286 286 280 277 275 275 277 280 281 279 282 284 286 288 288 287 284 282 284 280 284 285 281 281 287 292 292 292 292 291 290 292 292 292 292 293 294 293 294 294 295 295 295 295 293 292 292 291 290 289 289 288 288 288 287 287 287 287 287 287 286 285 285 284 284 283 282 281 280 279 279 278 277 277 276 276 276 275 275 275 275 274 274 274 273
286 288 288 286 283 281 283 285 288 286 283 280 283 286 285 287 288 288 287 284 281 284 283 284 285 286 288 290 292 293 294 293 294 295 295 293 291 291 292 293 294 295 295 294 295 295 292 288 288 289 288 288 288 287 287 287 287 286 286 286 286 286 285 284 284 283 282 281 280 280 279 278 277 277 276 276 275 275 275 275 274 274 274 274 273 273
285 284 287 288 287 287 288 288 290 290 286 287 286 285 286 286 287 286 284 282 288 284 280 286 288 286 287 290 291 292 293 294 295 295 295 296 296 295 293 292 294 293 293 293 292 292 291 291 290 288 288 287 287 287 286 286 286 286 286 285 285 285 284 284 283 282 281 280 280 279 279 278 277 276 276 275 275 275 274 274 274 273 273 273 272 272
285 284 287 287 285 288 289 289 290 289 288 288 287 287 286 286 286 284 285 287 287 283 281 287 288 286 288 290 292 293 294 294 294 295 296 296 297 296 295 292 290 291 292 290 292 292 291 290 290 289 288 287 287 286 285 285 284 284 284 284 285 284 284 283 282 281 281 280 279 279 278 277 276 276 275 275 274 274 274 273 273 273 273 272 272 271
286 284 286 286 285 286 287 288 288 287 287 287 286 287 287 287 286 286 286 287 287 285 287 288 288 287 290 291 292 294 295 294 295 296 296 296 295 295 295 292 291 292 289 291 292 292 292 292 291 290 290 288 287 286 285 284 284 284 284 284 284 284 283 282 281 281 280 279 279 278 277 276 275 275 275 274 274 273 273 273 272 272 271 271 270 270
287 283 288 286 283 284 286 287 288 287 286 284 286 287 287 287 287 287 287 287 287 286 287 287 286 286 291 294 293 295 295 296 295 294 295 295 295 295 295 294 294 294 294 290 291 292 292 292 292 291 290 289 288 287 286 285 285 284 283 283 283 283 282 282 281 280 280 279 278 277 276 275 275 274 274 274 273 273 272 272 271 271 270 269 269 269
287 283 287 285 282 281 285 285 285 286 285 285 284 285 286 285 284 285 285 287 286 284 286 286 284 285 290 293 294 294 294 294 293 294 294 295 295 295 294 294 294 294 293 293 291 290 290 290 291 291 291 291 290 288 286 285 284 283 283 283 283 282 281 281 280 279 279 278 277 276 275 275 274 274 273 273 272 272 271 271 270 269 269 268 268 269
285 284 283 283 280 279 285 286 284 284 283 280 281 285 287 287 288 288 289 289 288 288 285 283 284 290 292 293 292 293 293 293 293 294 294 294 295 295 294 294 294 294 294 294 290 290 291 291 291 291 291 292 292 289 287 286 284 283 283 283 283 281 280 280 279 278 278 277 276 275 275 275 274 273 272 272 272 271 270 269 269 268 268 268 269 269
286 285 284 286 280 280 285 284 285 281 274 276 288 290 289 287 287 285 285 287 289 290 287 290 290 292 292 292 292 292 293 293 294 296 296 295 295 295 295 295 294 295 295 292 290 290 291 291 291 291 291 292 292 290 288 286 285 285 284 283 281 279 279 278 278 277 277 276 276 275 274 274 273 273 272 271 270 269 268 268 268 268 268 268 269 268
285 285 284 286 281 280 284 283 279 273 275 286 291 291 292 291 290 288 289 290 290 291 291 290 291 291 292 293 293 293 294 295 296 296 296 296 296 295 295 295 295 295 294 293 292 292 292 292 291 291 290 290 291 289 286 284 285 282 281 280 279 278 278 278 277 277 277 276 275 275 274 273 273 272 271 270 269 268 267 267 267 268 268 268 268 268
285 285 284 283 283 283 281 279 274 274 285 287 290 291 292 291 290 289 286 289 290 291 291 290 291 292 293 293 294 295 294 295 296 296 296 296 297 296 294 294 295 295 295 295 293 293 293 292 292 291 291 290 289 287 286 285 284 282 280 279 278 277 277 277 277 277 276 275 275 274 274 273 272 271 270 269 268 267 267 266 267 267 268 268 268 268
289 287 286 282 286 278 279 280 279 286 284 284 286 287 288 285 286 285 281 285 291 291 291 290 291 292 292 293 294 294 295 294 292 293 297 297 296 296 294 294 296 296 295 295 294 294 294 293 292 292 290 288 288 286 285 284 283 281 279 278 277 277 277 277 276 276 276 275 274 274 273 273 272 270 269 268 267 266 267 267 267 267 267 267 268 268
291 286 286 283 280 286 280 278 279 278 275 281 289 291 294 293 292 291 288 285 292 292 293 292 291 292 292 293 293 293 293 290 288 290 295 296 297 296 296 295 294 295 296 295 293 292 292 291 291 290 289 287 286 286 285 283 282 280 278 278 277 276 276 276 276 276 275 275 274 273 273 273 271 270 268 267 266 267 267 267 267 267 267 267 267 267
290 290 287 284 281 284 281 277 277 276 279 287 288 292 293 294 293 291 286 281 289 292 293 293 291 292 292 292 292 292 289 286 287 291 295 295 295 295 294 294 294 293 293 293 292 292 291 291 290 287 285 285 285 284 282 282 281 279 277 277 276 276 276 276 276 275 275 274 273 273 272 272 271 269 268 267 267 267 267 266 266 267 267 267 267 267
285 286 285 282 280 282 281 279 277 282 281 287 290 291 294 295 294 286 277 278 291 293 293 293 293 293 293 293 292 290 288 286 288 292 296 296 295 293 292 292 292 292 292 291 289 290 289 288 286 285 284 285 284 281 280 280 279 278 277 276 276 275 275 276 276 276 275 274 272 272 271 271 269 268 267 267 267 267 266 266 266 266 266 266 266 265
282 282 284 279 280 281 282 279 282 283 288 289 291 291 292 292 289 280 276 284 291 292 294 294 293 293 293 292 291 289 289 292 292 294 294 293 291 290 289 288 290 291 291 290 289 288 287 285 288 287 285 284 281 279 278 279 279 278 277 276 275 275 276 276 276 274 274 273 271 271 270 269 269 267 267 268 267 267 266 266 266 265 265 265 265 265
280 283 282 283 279 279 280 279 278 283 288 292 290 292 290 286 279 279 289 293 292 289 288 289 289 288 288 288 288 288 289 290 291 292 291 290 290 291 291 292 292 290 289 287 286 286 285 284 286 286 285 282 281 280 279 279 278 277 276 275 275 276 277 275 274 273 272 271 270 269 268 268 268 267 266 266 266 265 265 265 265 265 264 264 264 264
282 281 276 279 281 282 281 277 276 274 286 293 291 290 289 284 285 289 289 289 288 288 287 287 288 288 288 287 289 289 289 289 289 290 290 291 290 290 291 291 290 290 290 289 287 284 285 283 285 285 285 281 280 280 279 279 278 277 276 276 277 277 276 274 273 272 270 269 268 267 267 267 266 265 265 264 265 265 264 264 263 263 263 263 263 263
280 278 280 282 282 277 277 276 276 282 283 286 285 281 285 288 290 290 289 286 288 287 286 286 287 287 287 287 286 287 288 289 289 290 290 290 291 291 292 291 291 291 290 288 287 286 286 286 285 284 282 280 279 279 280 279 279 278 277 278 278 275 274 273 272 270 269 267 267 266 265 264 264 264 264 264 264 264 263 262 262 262 262 263 263 262
286 277 277 275 281 279 277 279 282 285 286 286 285 285 288 293 291 288 287 287 286 285 286 284 285 286 286 286 285 286 286 287 287 288 287 288 289 290 290 290 290 290 289 288 287 284 284 286 285 284 282 280 279 279 280 281 281 279 278 279 275 274 272 271 270 269 267 266 265 264 263 263 263 263 263 263 264 263 262 261 261 261 262 262 263 263
280 282 284 281 278 283 282 283 286 285 284 283 285 288 290 289 289 287 285 284 285 286 285 284 285 284 285 285 285 285 285 285 286 285 286 286 287 288 289 289 290 290 289 287 285 284 284 284 284 284 282 279 278 278 279 280 281 280 281 276 274 273 271 269 268 267 266 264 263 263 262 262 261 262 263 263 263 263 263 261 261 262 262 262 263 264
280 281 280 276 278 276 270 281 280 280 282 282 283 287 290 288 287 286 284 283 284 284 283 284 284 284 284 284 284 284 284 285 284 284 285 286 286 287 288 288 289 289 289 289 289 286 284 283 284 284 283 283 280 277 278 279 280 281 278 273 273 272 270 268 267 266 264 263 262 262 262 261 261 261 262 262 262 263 262 262 263 263 262 263 264 264
273 281 276 276 276 273 273 279 280 281 282 283 285 287 285 284 285 284 283 283 282 283 283 283 283 283 283 282 283 282 283 283 283 283 284 285 286 287 288 288 289 289 289 289 288 286 284 284 284 285 285 285 284 278 277 277 278 278 274 273 271 270 268 267 266 265 263 262 262 261 261 261 261 261 261 262 262 262 262 262 264 263 263 263 264 263
277 280 272 276 275 276 279 279 280 280 280 282 283 284 282 282 282 281 282 282 282 282 283 283 283 282 283 282 283 283 283 284 284 284 285 286 286 287 288 289 290 290 290 290 289 286 285 285 285 285 285 285 285 278 276 276 276 275 272 271 269 268 267 266 265 263 262 261 261 261 262 261 261 261 261 261 262 263 263 263 264 264 264 266 265 265
277 273 277 276 272 272 273 276 278 272 272 277 278 279 280 281 281 281 281 282 282 282 283 282 283 284 284 284 284 284 284 284 285 286 285 286 287 288 288 289 289 289 289 289 289 287 286 285 285 284 284 284 282 277 275 274 275 272 271 269 268 267 267 265 263 262 261 261 261 261 261 261 261 261 261 261 262 262 263 266 267 266 265 265 268 269
275 276 277 273 273 272 277 278 278 277 277 278 279 280 280 281 281 280 280 281 281 282 281 280 279 279 280 282 284 283 282 283 284 285 285 285 286 287 287 288 287 288 288 288 288 287 284 283 282 282 282 282 280 276 275 273 273 270 268 267 267 267 267 265 263 262 261 260 261 261 261 261 261 261 261 262 262 262 262 263 266 269 269 269 270 270
Wind_Speed
5 6 6 9 15 10 10 12 13 13 12 13 10 8 11 9 10 12 12 5 8 4 11 14 14 12 16 15 11 13 11 9 11 9 10 10 13 13 12 12 14 13 14 7 11 13 13 13 12 10 9 10 11 12 13 14 14 14 15 13 14 12 13 11 11 10 11 11 8 6 9 9 8 8 7 6 7 7 7 7 7 7 6 6 5 4
0 6 10 16 17 9 8 9 12 14 14 15 12 9 11 6 14 13 11 3 5 6 5 10 10 13 17 15 13 11 11 15 13 11 14 16 16 13 12 14 14 13 3 6 6 8 9 10 9 9 9 9 13 11 13 15 15 14 15 15 14 12 12 12 12 12 11 10 12 11 10 8 9 9 9 8 7 7 6 7 7 7 5 6 6 5
7 12 14 16 11 8 10 10 8 7 8 7 6 5 7 10 12 13 6 3 1 4 8 7 11 13 16 16 16 13 15 13 11 13 16 15 16 13 12 13 11 6 6 7 9 9 11 10 10 10 10 11 14 14 15 14 14 14 14 13 13 12 13 12 12 11 11 9 8 8 7 9 7 5 6 6 6 6 7 7 7 6 6 7 5 6
9 10 17 13 10 11 11 8 5 6 8 8 7 5 11 9 7 8 2 2 3 5 2 4 9 10 12 15 19 19 19 17 15 16 17 16 15 16 17 15 7 7 8 10 10 11 10 11 11 10 11 11 11 11 11 12 15 12 13 13 14 13 12 12 12 11 9 9 7 6 8 7 8 7 7 6 7 7 7 7 7 6 6 6 6 6
17 5 4 9 11 12 14 9 6 6 11 7 9 9 10 11 11 9 4 4 5 7 7 6 11 11 12 17 14 15 16 14 14 13 14 15 14 15 14 9 7 8 10 10 9 9 10 11 13 14 12 10 12 12 13 14 15 12 15 15 15 13 13 11 11 12 10 9 8 7 7 6 7 6 6 6 5 6 6 6 6 7 6 6 6 6
16 9 2 3 1 5 5 6 6 7 14 8 7 11 14 13 12 10 9 6 4 5 5 2 9 10 9 17 18 5 0 6 8 9 13 15 14 15 10 12 9 7 9 14 14 14 14 14 11 10 11 12 12 14 13 13 14 12 13 13 13 11 11 12 12 13 12 11 12 11 11 10 7 8 8 10 11 9 9 8 6 6 7 6 6 6
6 3 10 10 7 6 5 6 5 5 12 9 5 8 13 11 8 7 8 2 5 6 1 1 1 19 5 7 5 1 5 7 5 8 12 12 14 13 7 9 8 9 8 8 9 10 11 11 12 12 13 14 15 14 11 11 12 13 12 13 14 12 11 11 12 13 11 11 11 13 13 13 13 12 8 5 5 7 6 6 8 8 8 7 8 6
4 4 3 3 6 8 6 8 10 11 9 11 0 0 1 2 5 4 3 5 7 2 4 4 1 9 23 7 5 9 8 8 7 8 10 13 15 11 11 10 6 9 10 11 12 13 13 14 16 17 16 15 15 12 11 12 12 14 14 14 14 12 12 11 12 14 12 13 12 12 11 10 10 10 10 10 8 8 8 9 9 8 8 7 7 7
5 4 7 8 6 5 10 13 2 10 7 2 1 3 2 1 0 1 1 4 3 4 8 8 6 4 14 3 12 12 7 9 9 9 12 16 14 11 13 13 7 10 12 12 11 13 14 15 15 13 14 13 11 11 13 13 13 12 12 13 13 13 12 12 14 14 13 12 12 12 11 10 8 8 8 8 8 9 9 9 8 8 8 7 7 7
2 3 4 8 6 10 7 2 1 2 9 1 1 4 2 1 1 1 1 1 4 1 14 8 10 7 21 14 4 6 11 11 11 12 16 16 13 11 12 10 8 8 8 9 11 11 13 12 12 12 11 11 12 12 10 10 10 11 11 13 15 14 13 12 14 14 13 12 11 12 12 12 10 9 7 9 9 9 9 10 9 8 8 8 7 7
1 3 1 1 8 4 4 2 2 2 1 3 1 1 1 0 1 0 0 1 2 8 16 10 13 11 15 10 10 7 8 11 10 9 11 10 9 9 10 9 8 8 8 8 9 8 9 9 10 10 12 12 10 9 10 11 12 12 13 14 16 15 12 13 14 15 15 13 12 13 14 14 13 12 11 11 10 9 8 9 8 8 7 7 8 7
1 2 0 3 4 4 4 3 2 1 1 2 1 1 0 3 2 1 1 1 2 15 7 14 16 16 13 3 1 9 9 14 14 14 15 9 11 10 8 8 9 9 8 8 8 7 8 8 9 10 11 12 12 11 12 12 12 13 13 13 15 14 14 13 14 15 15 14 14 12 13 14 13 14 12 14 13 12 12 10 10 8 7 7 7 7
9 13 6 2 5 9 3 2 1 1 0 2 4 2 3 4 1 2 2 2 6 13 1 9 13 6 22 16 1 1 2 9 10 9 10 13 12 10 9 10 8 8 8 9 8 8 9 11 12 13 11 11 13 14 15 15 14 13 13 15 16 16 15 15 14 16 16 14 14 14 14 13 12 13 12 12 12 11 11 10 10 9 8 7 7 7
6 1 7 7 4 6 7 8 2 2 7 8 7 7 5 3 4 6 5 5 5 7 5 6 8 13 10 7 10 11 8 10 11 10 9 10 9 9 9 7 7 8 9 9 9 9 10 11 11 11 12 13 13 14 14 14 14 13 13 15 17 17 15 13 14 16 16 17 15 13 13 12 12 12 12 11 11 11 10 9 10 10 10 9 9 9
4 8 8 9 6 9 14 14 17 7 9 14 5 10 11 8 2 2 4 7 8 8 1 2 4 7 2 6 12 19 17 11 11 13 10 7 7 8 6 6 6 7 6 8 9 10 11 12 12 13 13 12 12 13 14 13 14 13 14 15 18 16 17 16 17 15 17 15 14 13 12 12 11 11 11 10 9 11 11 9 10 9 8 9 8 9
9 13 3 15 2 10 14 14 4 4 1 5 5 2 2 8 2 9 9 7 5 5 8 5 7 3 8 0 6 9 14 14 10 13 10 8 6 7 4 7 8 7 7 6 7 8 8 9 9 10 11 12 12 13 13 14 14 14 16 16 18 18 17 16 16 16 17 15 13 12 13 13 12 10 9 8 8 9 10 10 10 9 9 8 8 7
1 8 3 3 4 6 6 1 7 4 6 4 8 8 11 1 7 4 6 6 3 4 19 3 9 11 7 18 16 13 8 12 11 11 9 8 9 10 8 6 6 7 7 8 9 9 10 8 9 11 11 11 11 12 15 16 17 19 17 16 17 16 14 16 17 16 14 14 14 15 13 12 12 12 13 12 12 11 9 9 9 9 8 7 7 7
6 9 2 3 4 3 0 2 2 3 1 8 3 6 1 2 3 3 3 1 3 6 15 5 11 16 8 16 3 14 13 12 12 13 13 13 13 12 6 7 8 10 10 8 7 8 10 12 13 11 11 12 14 15 15 16 15 14 15 16 17 16 18 18 17 16 15 16 16 14 14 13 13 12 11 10 12 10 10 8 8 7 8 8 7 7
4 9 5 1 4 3 3 0 3 1 1 2 4 3 4 3 1 3 2 5 5 8 8 12 14 14 18 18 8 3 13 15 15 15 15 15 15 11 7 9 8 6 5 8 10 10 10 11 12 14 15 14 13 13 14 13 13 12 12 14 15 19 20 18 15 13 12 13 12 12 14 14 12 10 10 10 10 10 11 11 10 9 8 8 7 8
1 8 4 1 1 1 1 2 6 5 1 2 2 3 0 2 2 7 7 3 4 11 5 17 16 18 11 5 4 9 12 13 13 10 13 14 12 9 8 8 8 7 10 10 10 11 12 12 13 14 13 13 15 15 13 13 12 14 15 14 14 12 10 12 14 15 15 15 12 11 11 11 11 11 11 11 12 11 11 11 10 9 9 9 7 7
6 4 11 1 3 1 4 6 9 12 11 3 1 4 0 1 1 2 3 6 6 6 7 8 14 21 5 4 7 7 11 11 10 11 10 10 9 10 9 8 6 7 8 9 10 10 11 13 11 11 12 13 9 7 7 10 14 13 10 12 14 16 17 16 15 14 14 12 13 13 15 14 13 13 11 11 11 11 10 9 10 9 8 8 8 7
3 3 12 3 1 9 13 6 16 14 15 12 15 14 16 10 4 5 13 2 4 6 6 6 16 21 4 5 8 7 6 9 10 12 11 10 11 9 6 6 7 7 8 9 9 9 10 9 10 7 5 3 6 9 12 13 9 10 14 15 13 12 13 15 15 16 15 14 13 14 14 14 11 12 10 11 11 11 10 10 10 9 9 9 7 8
10 4 6 9 12 16 13 13 12 13 9 8 11 11 12 11 8 9 14 9 0 3 6 10 13 24 4 8 3 1 8 10 12 9 8 7 7 7 7 7 8 10 11 11 10 10 10 10 11 13 13 13 14 14 12 9 12 14 15 13 13 15 16 15 15 12 11 12 13 14 13 12 12 12 12 12 10 11 10 9 9 9 10 9 8 7
6 2 4 12 9 7 7 4 4 1 1 3 4 5 6 13 16 12 10 6 8 4 8 11 16 19 10 7 1 3 4 1 2 6 6 6 7 7 7 8 10 8 8 7 9 9 10 8 6 6 9 11 11 10 12 14 13 11 11 13 12 15 15 12 12 12 12 12 13 13 13 13 12 13 13 13 11 12 10 10 10 9 9 9 8 9
4 3 9 9 5 4 10 6 2 4 1 4 7 8 9 8 6 10 6 2 11 13 16 16 21 9 16 3 5 5 4 5 6 5 4 6 7 6 8 9 8 8 9 8 8 9 8 6 8 12 13 13 13 11 11 12 12 12 13 11 13 14 12 11 10 11 12 12 14 13 14 14 14 14 14 14 12 13 12 11 11 9 10 10 9 8
9 3 7 10 13 13 12 12 14 9 5 3 3 7 7 11 12 5 9 8 14 12 22 17 14 14 21 10 7 7 6 6 6 7 7 8 8 9 9 7 8 9 10 10 10 8 9 11 11 9 9 10 11 12 13 12 11 11 11 13 12 10 11 12 11 12 12 12 13 14 15 15 14 15 15 14 13 13 12 11 11 11 9 10 10 8
2 2 10 11 12 14 15 14 5 3 2 3 5 10 11 9 11 13 10 11 14 17 18 14 16 21 20 21 24 25 20 18 17 16 15 10 8 8 7 7 9 10 10 11 12 12 9 5 7 11 12 12 12 11 11 12 12 11 11 11 10 11 11 11 12 12 13 13 14 13 15 15 16 15 14 13 13 12 11 11 11 11 11 9 10 10
1 4 12 19 21 19 16 18 17 17 17 15 11 9 8 11 11 14 14 18 17 16 20 10 19 19 20 21 25 25 23 20 17 15 16 16 14 11 7 8 10 9 8 8 7 8 9 11 11 11 12 11 11 11 9 10 11 12 13 13 11 11 11 11 13 14 14 14 14 14 15 14 13 13 13 12 11 12 12 11 11 11 9 9 10 9
5 9 8 9 14 14 16 17 18 21 20 19 18 18 18 10 13 16 18 23 21 17 19 14 19 22 22 18 18 23 23 19 16 16 18 20 20 17 14 10 8 8 9 8 10 10 10 10 12 12 12 13 10 10 12 10 10 9 8 9 10 11 13 12 13 13 14 14 15 15 13 11 11 10 11 11 12 12 12 12 10 10 9 9 8 7
3 9 8 13 17 17 16 18 20 22 20 19 18 18 16 17 15 15 21 21 18 18 20 22 23 26 20 18 20 19 15 17 20 21 22 22 22 22 19 11 9 11 7 9 11 12 12 13 12 12 13 11 11 13 12 11 11 12 13 12 12 13 12 12 14 15 15 16 15 11 11 11 10 11 12 12 13 12 12 11 10 10 10 9 8 8
7 10 12 13 14 17 19 20 19 21 20 23 23 20 17 16 20 26 23 17 17 20 23 25 23 23 18 20 19 18 20 21 24 27 29 26 23 21 19 17 16 16 13 8 12 14 13 12 13 12 11 12 13 14 14 14 14 11 11 11 13 14 13 13 14 14 14 13 11 12 12 12 12 12 13 12 11 10 11 11 10 10 9 9 9 9
10 8 7 8 11 14 13 20 23 24 24 26 23 22 21 23 26 22 20 21 19 23 25 23 19 20 20 17 17 19 21 25 27 27 26 23 22 21 19 17 17 17 15 14 11 11 11 13 13 13 14 14 14 14 13 12 12 12 14 13 14 13 12 13 13 14 13 12 12 12 13 13 13 13 13 12 11 11 10 9 9 9 9 8 8 8
9 5 8 9 14 17 15 19 23 22 19 18 19 22 32 34 27 22 21 21 22 25 21 18 22 21 20 13 16 18 24 25 25 22 21 19 20 20 18 18 15 14 17 15 8 10 12 13 13 13 14 14 15 14 14 15 13 15 14 14 14 11 13 14 13 13 13 12 13 14 14 13 13 13 12 12 11 10 10 10 10 9 9 9 7 6
8 12 13 8 12 12 14 19 12 13 17 17 15 30 30 29 27 28 25 27 31 23 20 22 24 18 15 16 21 24 25 25 24 23 17 13 17 17 16 16 13 16 17 9 8 9 10 10 10 11 12 14 15 15 15 15 17 17 14 13 11 14 13 14 12 13 14 14 15 15 14 14 14 14 13 12 11 11 11 11 10 9 8 8 7 7
13 12 12 6 9 8 8 9 11 21 20 10 17 18 22 26 26 30 31 29 27 25 27 25 25 22 23 24 24 25 25 26 26 25 21 15 16 16 17 17 16 17 15 10 9 8 9 9 10 10 10 10 12 10 9 10 11 7 9 11 12 11 13 12 13 12 13 14 13 13 13 15 14 14 13 13 12 12 11 11 10 9 7 7 8 8
12 12 9 7 7 6 6 8 14 17 1 3 9 13 15 19 23 22 25 23 26 26 25 25 23 22 22 24 24 23 24 26 24 19 16 19 19 14 14 13 14 16 15 12 9 9 10 9 10 10 11 9 8 8 10 13 10 11 11 11 14 13 13 13 13 14 13 14 14 15 15 15 15 14 13 13 12 12 12 10 11 8 8 7 6 5
19 14 10 12 9 13 11 14 22 8 10 4 4 7 12 16 13 18 22 25 27 27 22 23 23 23 24 25 23 23 22 19 16 15 17 21 17 13 10 10 12 15 13 13 9 11 12 9 8 10 7 6 9 10 12 9 11 11 11 12 11 13 12 13 13 15 16 15 15 15 16 15 16 15 14 14 15 13 11 11 10 8 7 8 7 7
19 19 13 14 9 13 17 17 13 13 16 15 15 15 18 21 21 22 19 26 9 14 15 21 24 25 26 23 22 23 17 16 16 15 18 21 17 13 12 12 11 11 13 13 8 8 8 7 7 7 7 8 9 11 8 10 12 12 12 12 12 13 13 14 16 16 16 16 15 16 16 16 17 17 16 15 17 13 10 7 6 7 7 7 8 7
22 20 19 18 12 11 17 17 15 16 15 7 17 17 19 19 21 17 12 22 5 11 13 20 22 20 22 22 22 15 11 14 14 14 15 17 14 13 12 10 10 10 11 10 9 8 7 8 6 5 5 5 8 8 9 11 13 13 12 12 13 14 14 16 16 16 17 16 15 15 15 15 15 16 17 17 12 10 11 9 9 8 7 5 5 5
20 16 16 17 17 14 17 14 14 8 12 8 10 13 19 19 13 5 17 11 12 18 19 20 22 22 20 19 15 11 10 14 14 15 15 16 13 7 6 7 8 10 10 8 5 6 5 2 3 1 4 8 5 4 7 10 11 12 13 13 11 13 16 17 18 14 11 11 13 13 14 13 15 15 17 15 12 13 12 10 8 9 8 7 6 5
12 13 13 21 17 22 23 17 13 9 5 7 11 8 11 8 6 15 21 9 6 15 18 18 18 14 13 13 9 9 5 9 13 15 14 11 8 7 6 5 7 7 8 6 4 5 4 4 6 5 2 0 3 5 5 6 8 10 9 11 12 15 18 13 9 11 12 12 12 12 13 12 14 16 13 13 12 11 9 7 9 9 8 8 7 6
9 3 6 10 14 12 15 15 16 14 4 1 3 9 4 1 8 17 13 7 12 14 15 16 16 15 13 12 10 8 10 12 13 15 15 14 12 11 10 10 9 7 5 2 4 3 4 2 2 2 3 5 9 8 8 8 9 8 8 10 15 20 9 9 11 11 11 13 12 12 12 13 11 11 12 13 12 10 9 7 7 7 8 6 6 8
6 6 4 11 9 10 10 10 6 7 6 10 13 8 1 10 5 10 12 12 13 16 18 15 12 12 15 13 13 13 13 13 12 12 12 13 13 13 14 13 12 10 10 6 3 2 5 4 6 7 6 6 8 10 11 12 12 10 11 13 18 8 9 9 11 12 13 13 14 14 14 13 15 12 11 14 12 9 10 9 12 9 8 8 8 7
9 9 5 3 1 6 9 10 4 5 6 9 15 6 11 11 7 12 12 13 12 10 12 13 13 12 13 14 14 15 14 12 14 14 13 13 13 13 12 11 12 12 11 7 5 3 2 4 4 5 6 7 7 8 9 13 12 12 13 20 8 9 9 10 11 12 13 13 13 13 13 14 14 13 12 15 12 8 10 10 8 7 6 7 7 7
1 4 7 9 6 5 6 9 13 9 5 7 7 11 14 9 10 9 8 7 9 11 7 9 12 15 13 13 15 14 14 15 16 16 13 12 13 12 12 12 12 11 10 10 10 4 3 7 7 4 3 4 6 7 10 10 13 12 16 12 9 11 12 12 13 14 14 14 14 14 13 13 12 14 16 15 16 12 9 10 9 8 7 7 7 7
14 12 3 7 6 11 14 13 12 7 16 18 17 7 9 7 4 6 9 11 10 6 5 9 12 13 14 12 13 15 16 15 17 18 19 18 16 14 12 12 12 10 8 8 7 6 5 4 5 6 7 6 8 9 9 10 11 16 18 7 11 11 13 14 15 15 16 14 14 15 15 16 14 11 8 10 8 7 8 11 10 8 8 7 7 7
7 12 11 5 13 14 13 11 17 16 19 21 18 12 5 4 7 10 12 13 12 13 13 9 9 12 14 13 12 13 16 17 17 17 16 15 16 16 15 14 13 11 10 10 10 6 5 7 8 9 9 10 9 9 10 12 12 12 5 11 11 12 13 15 15 15 14 15 15 15 16 18 12 9 9 8 7 6 7 8 8 9 9 8 8 8
17 5 16 10 14 11 14 17 20 20 18 16 11 8 5 11 12 12 13 13 14 14 13 14 12 11 8 11 12 13 14 14 14 15 15 14 13 14 15 15 14 12 10 8 9 7 7 8 10 12 12 13 12 10 9 9 11 8 7 9 12 13 14 15 16 17 16 17 16 16 15 12 13 14 9 9 9 10 8 6 7 9 10 11 11 10
14 15 15 5 14 16 17 17 12 14 13 12 8 6 12 16 16 19 16 13 12 12 14 12 7 9 9 11 10 10 11 13 12 11 12 13 13 12 13 13 13 13 13 12 8 7 10 10 12 13 13 14 11 5 8 9 9 8 10 11 12 15 16 15 13 12 14 14 14 15 13 14 9 9 10 10 6 4 5 9 10 8 6 5 5 8
8 11 14 15 13 13 10 11 12 16 17 21 18 10 9 11 16 18 16 13 11 11 11 12 12 9 8 9 11 11 11 12 13 12 11 11 12 13 13 13 13 13 13 10 9 7 8 10 11 12 13 13 7 6 9 10 10 9 9 11 13 15 17 15 14 14 15 14 15 14 14 11 7 8 8 10 10 11 8 6 10 7 8 8 12 14
10 11 10 12 10 15 16 20 18 19 21 17 20 22 20 15 10 9 9 11 10 9 10 13 16 16 13 11 9 12 14 15 17 16 15 13 13 13 13 14 14 14 14 12 11 10 9 9 10 10 11 12 7 9 10 10 10 10 11 13 15 17 17 17 15 13 13 14 15 16 9 8 9 8 8 7 9 8 11 10 9 12 13 12 15 14
Wind_Direction
144 179 195 216 236 228 222 216 229 241 247 260 268 271 267 269 273 268 273 213 200 200 217 226 235 244 256 255 250 257 261 257 254 245 239 236 240 243 243 241 239 234 234 194 191 183 188 188 183 176 169 171 171 171 168 166 170 165 169 165 172 170 166 162 163 166 163 161 160 158 171 174 172 173 169 169 173 168 165 149 144 147 153 143 143 144
131 213 217 230 240 238 237 234 231 238 241 246 254 262 271 265 268 266 284 146 229 189 242 231 239 244 254 259 256 254 251 251 249 250 250 253 251 252 244 246 240 236 207 157 168 178 179 181 176 168 166 164 170 178 169 172 174 170 171 175 171 170 172 172 172 169 174 176 176 171 177 165 173 170 172 173 181 170 162 149 149 148 157 147 149 156
214 222 229 238 250 255 257 259 261 267 273 276 269 278 288 269 275 282 284 147 237 164 264 272 267 260 263 265 264 254 250 247 246 242 250 251 260 259 256 251 246 213 193 171 174 170 179 177 174 170 173 180 178 175 177 172 173 173 174 177 173 176 175 176 173 173 178 174 171 168 166 166 163 176 161 160 166 160 152 151 149 153 155 152 158 154
243 232 241 252 255 255 260 244 254 273 267 259 261 269 255 262 272 289 148 225 199 198 241 226 265 262 266 266 263 259 255 249 243 248 253 251 253 255 254 248 236 209 180 178 173 177 179 175 174 173 180 180 174 176 175 174 178 176 178 178 177 180 178 176 176 176 172 165 159 155 151 158 154 162 158 152 156 153 143 154 154 160 158 157 161 157
230 222 192 231 235 233 243 239 240 249 256 229 227 241 256 255 246 234 263 182 217 229 252 309 281 266 245 260 260 256 245 249 246 245 249 257 253 249 254 269 223 206 183 177 176 176 172 176 184 185 180 171 178 181 183 179 181 183 181 180 178 179 180 178 172 171 162 152 147 131 109 94 95 91 116 120 138 156 154 147 162 171 160 161 160 158
247 235 122 209 174 228 230 244 221 222 264 256 218 211 238 250 264 269 280 327 336 296 173 184 303 262 216 224 243 276 140 224 235 225 238 243 256 255 248 248 240 212 178 178 183 181 181 183 180 181 178 180 183 189 189 183 183 180 179 178 178 179 178 178 174 169 167 167 158 151 148 151 151 160 164 179 177 174 176 177 160 160 166 163 160 159
244 153 182 212 209 218 220 233 220 183 255 273 249 208 241 255 259 270 286 344 273 241 315 341 192 292 165 249 231 222 197 218 237 205 231 241 244 251 227 232 222 193 190 184 178 175 175 182 179 184 186 187 189 193 181 180 182 181 179 179 178 179 178 178 175 172 168 166 170 172 172 171 173 172 191 174 165 166 165 158 165 168 165 166 161 165
167 143 153 187 208 227 232 252 230 209 247 265 140 327 112 261 262 255 246 206 253 322 266 156 130 271 290 239 208 208 194 216 225 230 235 241 241 247 258 253 191 193 185 180 183 182 183 181 183 188 190 189 193 183 178 182 182 182 180 178 180 178 180 180 174 177 176 172 174 175 178 177 180 181 173 173 173 165 162 165 166 161 163 163 160 161
187 188 192 209 202 200 223 231 229 180 202 234 286 24 69 60 71 44 199 260 260 340 269 168 159 262 259 271 179 163 200 213 218 220 232 237 237 232 240 249 203 194 190 180 181 182 183 186 190 186 188 193 184 181 184 186 184 180 179 178 178 181 179 180 177 179 180 178 178 178 176 180 186 173 166 165 162 157 158 155 156 156 161 162 164 166
313 182 219 199 159 223 220 49 49 198 214 234 170 69 80 72 71 206 216 289 314 296 265 159 168 217 274 257 244 203 202 206 212 216 231 234 234 223 226 233 206 196 191 187 183 181 186 186 182 183 179 177 188 187 184 181 177 181 179 181 181 186 182 180 180 180 180 180 175 181 185 182 176 171 160 157 156 152 154 155 159 159 161 164 164 169
218 182 42 162 209 222 99 85 75 37 128 147 130 95 38 307 208 67 152 161 354 250 258 170 190 181 270 289 190 156 208 197 204 224 236 241 245 241 225 217 189 187 181 181 182 186 179 172 167 166 175 182 180 181 178 181 184 183 184 183 187 188 182 180 181 180 184 181 184 187 186 183 178 172 158 154 159 154 154 161 165 167 167 163 166 165
170 89 173 249 58 104 122 64 29 256 3 131 113 153 175 309 33 19 314 109 186 269 262 174 181 186 232 335 305 192 182 191 192 213 219 212 233 233 222 220 194 178 175 172 170 172 154 152 165 167 175 176 178 176 183 185 184 186 187 186 188 189 187 181 180 182 185 186 191 190 186 185 181 172 169 169 168 170 169 168 168 165 161 169 165 164
241 229 206 54 258 152 165 142 8 17 131 161 125 122 159 251 60 282 72 256 200 244 233 175 171 227 231 237 312 247 173 204 209 216 213 201 213 223 222 217 188 170 160 167 169 163 164 168 172 178 177 173 179 184 186 187 186 186 187 188 189 195 187 184 181 185 186 188 193 191 188 187 181 181 175 173 170 171 169 166 164 166 170 164 163 170
273 258 187 205 31 221 136 192 204 300 210 164 161 167 133 252 221 261 240 216 265 258 261 172 185 226 265 271 208 238 221 203 209 217 214 195 190 205 215 204 173 167 165 169 168 172 174 176 179 181 179 181 183 186 187 185 185 187 190 191 194 196 188 184 183 187 188 194 193 190 188 186 182 183 179 178 172 172 169 167 168 171 171 171 173 170
277 287 217 133 243 167 188 204 204 190 154 196 177 148 196 179 163 238 223 236 235 253 296 208 93 233 89 245 181 208 220 207 202 212 214 201 197 214 216 173 153 150 169 165 171 178 179 181 179 182 183 183 186 187 186 186 189 186 193 194 195 192 192 186 188 186 192 193 192 190 188 185 184 181 179 178 172 167 167 168 166 168 165 166 170 171
222 247 204 177 324 152 187 217 185 95 114 203 179 193 290 226 165 227 242 258 288 339 295 184 214 240 251 164 196 211 211 214 207 216 213 213 219 235 194 168 172 176 170 172 175 183 189 183 181 182 186 188 187 186 186 189 188 191 198 197 197 196 190 189 187 193 193 191 187 187 187 187 181 176 171 168 165 166 165 165 165 166 164 161 154 153
13 262 102 109 4 173 197 66 203 150 217 214 133 201 206 136 181 250 309 280 289 293 264 211 265 259 303 267 233 233 210 220 215 216 218 213 219 226 211 189 187 184 178 179 182 189 187 181 190 192 192 190 185 185 193 193 191 194 192 193 197 196 191 191 193 193 191 188 184 190 186 181 180 178 177 174 169 163 160 157 160 160 159 149 147 148
221 262 110 164 233 284 224 300 350 352 115 102 217 236 82 19 112 151 228 356 211 234 273 267 259 286 296 290 134 197 206 211 208 210 210 216 219 226 204 207 198 194 192 184 190 192 191 191 190 192 196 196 194 194 193 197 197 197 195 195 193 191 194 196 190 190 189 188 189 185 186 185 182 180 175 169 165 160 155 155 153 147 150 160 153 147
176 266 239 240 15 347 327 309 335 342 44 150 190 326 133 248 253 243 111 247 259 253 270 279 274 270 257 258 283 255 202 206 209 207 208 214 220 222 215 219 214 186 167 185 191 189 196 196 197 194 197 199 201 196 197 196 193 196 200 199 194 197 200 193 187 187 188 189 191 187 184 181 178 175 172 167 161 158 162 161 160 159 155 144 147 146
106 235 256 322 95 55 354 138 209 206 309 125 36 335 218 85 212 153 192 204 163 259 285 280 293 274 249 232 229 212 195 202 203 203 213 217 217 216 218 219 209 188 192 196 201 198 195 201 200 197 195 193 196 196 196 194 192 197 198 192 199 200 195 190 189 186 188 191 184 182 174 178 176 173 170 168 164 165 166 163 157 153 154 159 150 152
251 130 246 112 297 10 269 175 207 172 189 226 200 262 264 183 247 98 298 211 198 219 223 267 288 273 281 195 210 193 188 190 190 202 207 220 227 216 209 214 215 201 206 208 203 209 206 199 201 200 197 198 198 195 190 191 196 199 191 200 197 193 194 193 194 185 190 181 184 176 179 177 171 172 167 163 166 163 163 158 156 159 156 143 157 150
184 193 229 130 270 211 239 171 200 201 195 187 189 209 199 173 189 215 250 223 230 205 230 235 251 270 245 75 109 125 192 184 197 204 207 210 219 223 224 220 206 214 222 214 212 204 205 209 201 201 208 219 196 192 191 193 184 190 198 200 196 193 195 195 190 191 187 182 180 180 177 173 169 167 165 163 164 163 161 161 160 154 148 154 153 148
191 175 200 217 219 243 240 230 214 221 220 217 193 219 198 198 192 198 237 226 174 243 253 234 255 258 236 76 69 123 189 193 196 192 202 214 219 217 219 218 224 215 209 207 209 213 210 197 195 192 190 191 197 202 196 188 193 197 199 193 193 192 200 196 193 186 179 178 179 180 173 165 167 166 167 165 166 164 163 159 154 152 151 151 152 152
90 135 197 244 257 277 289 58 24 44 152 279 268 238 171 211 207 213 229 209 233 190 213 237 238 256 270 77 111 129 154 175 262 175 181 210 215 217 212 220 228 231 228 220 214 214 205 205 197 180 185 196 204 202 200 201 198 197 194 195 192 199 199 189 183 181 178 179 179 173 166 170 166 167 170 171 171 167 163 158 156 153 151 150 153 157
216 221 212 251 259 281 286 292 313 2 351 203 216 227 230 241 227 236 257 213 248 226 240 241 249 262 270 139 188 180 169 204 212 242 210 235 248 238 241 241 237 227 224 219 215 217 218 194 178 193 198 201 202 202 203 200 199 195 198 192 197 201 189 181 175 176 181 177 174 174 173 171 170 173 174 173 170 168 162 160 155 155 154 152 157 161
214 183 187 221 228 234 238 230 241 243 207 227 265 248 236 222 229 242 241 220 244 234 237 243 264 261 271 278 271 253 239 240 253 245 238 237 238 238 241 246 237 227 223 219 224 225 211 203 202 201 205 207 204 203 201 201 200 198 197 202 197 185 178 182 175 178 175 176 176 179 178 175 174 177 176 172 169 166 163 158 157 156 157 158 157 156
295 211 220 230 232 237 237 255 285 113 95 167 235 225 232 230 226 228 240 239 236 243 241 243 253 264 268 277 274 270 268 274 278 281 278 271 257 240 237 227 226 227 223 222 222 223 222 206 208 213 210 207 207 201 201 199 198 199 198 195 189 187 180 177 173 175 177 180 182 180 183 180 179 176 174 171 166 163 161 160 158 157 159 160 157 159
45 273 239 241 240 244 248 254 263 271 271 263 261 259 236 228 225 223 224 239 239 256 255 238 253 258 257 258 265 276 278 274 274 278 282 278 273 263 226 224 241 245 243 240 238 236 225 219 216 214 214 215 214 207 206 204 200 196 193 191 185 180 178 177 176 177 180 180 185 187 187 183 175 173 171 166 161 161 160 158 158 159 157 152 158 160
187 237 240 274 262 258 260 260 261 267 263 262 259 262 260 232 232 234 234 238 237 237 255 251 250 253 253 255 267 266 274 283 287 285 279 281 283 283 281 274 255 235 232 226 230 231 228 224 220 217 218 218 212 205 204 200 196 191 192 185 182 181 185 178 176 178 180 183 189 191 182 173 169 165 162 161 159 159 162 161 157 151 150 152 152 150
200 235 251 242 258 256 258 257 259 259 262 263 258 257 259 266 260 241 243 245 249 257 259 258 255 258 264 265 259 270 285 293 291 285 282 282 282 284 283 273 257 258 220 222 230 230 228 225 225 220 218 215 207 208 203 197 195 193 188 187 183 184 182 169 181 181 184 188 189 177 169 167 165 165 163 162 164 163 158 155 153 151 149 148 148 145
199 236 212 235 246 246 242 248 249 248 248 258 259 254 252 258 258 257 262 262 261 259 257 257 261 267 267 267 275 284 282 282 280 278 279 280 280 279 279 277 275 274 273 231 228 234 229 228 229 227 219 219 213 209 203 199 198 191 186 185 185 184 181 177 180 186 185 185 174 170 166 166 167 163 167 165 159 157 155 154 152 149 145 145 146 148
175 248 206 224 241 242 228 239 236 239 240 244 250 261 263 252 252 249 248 246 245 251 251 255 258 258 257 259 269 270 272 267 266 268 273 276 277 279 278 276 273 274 272 262 236 228 230 230 232 227 223 223 221 212 203 197 192 184 193 188 186 183 172 178 181 181 181 176 170 169 168 168 164 165 166 161 162 158 154 148 147 147 147 147 149 155
184 184 208 216 238 239 231 229 233 239 244 241 235 240 243 245 242 245 245 249 245 245 252 255 250 246 254 256 263 260 257 258 261 262 262 267 272 270 273 270 273 275 268 266 242 227 229 231 227 222 222 223 224 214 205 195 185 193 193 186 187 165 173 179 178 177 175 172 170 172 169 166 166 165 163 163 157 154 149 148 146 147 151 157 151 146
194 209 228 198 243 245 229 243 238 242 226 224 204 219 224 236 239 242 240 236 239 234 236 233 247 252 256 251 246 250 254 256 257 258 252 250 264 271 269 274 272 268 269 259 235 232 232 232 237 234 223 218 218 210 202 188 191 198 188 178 162 168 172 172 176 175 175 172 175 171 167 166 165 165 163 157 152 150 150 152 155 151 147 142 146 157
204 211 234 210 245 243 227 238 249 233 240 221 218 221 230 237 240 242 244 240 244 243 247 250 248 243 240 239 241 244 247 252 257 260 266 261 251 255 266 271 271 267 265 268 263 254 248 236 232 235 232 226 220 211 184 191 196 164 152 159 163 166 167 175 172 176 175 175 173 167 167 166 166 164 160 156 153 152 153 153 147 147 149 151 158 161
220 213 226 231 225 254 223 207 240 245 136 280 209 217 219 235 240 253 259 255 254 248 246 249 248 249 247 247 247 247 251 254 259 266 271 263 258 252 248 246 253 263 269 267 259 265 265 254 239 228 226 220 207 195 184 190 172 160 166 156 164 167 170 169 172 176 174 177 176 173 171 167 166 163 159 156 155 155 156 154 156 145 149 147 148 151
227 229 219 252 195 238 230 222 239 271 277 159 163 208 200 219 220 223 247 241 232 241 237 248 250 250 250 248 250 255 257 263 269 271 263 264 265 252 224 222 241 258 265 265 255 257 263 259 242 234 216 192 190 181 194 169 157 155 150 161 165 164 166 168 177 183 182 181 176 173 171 169 165 163 162 160 160 159 155 152 149 147 146 147 155 159
217 223 211 233 223 212 247 251 250 236 238 232 212 209 212 226 228 232 235 259 211 240 229 241 245 244 249 253 252 251 255 265 264 264 262 263 260 264 249 235 231 241 250 258 260 256 264 262 248 237 199 196 194 192 166 156 155 153 156 163 162 164 173 177 189 187 183 182 177 174 171 171 167 165 165 166 154 150 151 140 122 135 144 146 151 157
223 220 225 220 230 217 236 243 242 246 247 203 224 215 219 227 232 243 253 260 161 223 219 235 240 239 241 243 247 249 250 251 252 254 257 260 257 244 246 248 240 234 240 242 238 249 255 253 234 215 197 183 195 189 159 153 151 151 165 166 171 174 178 192 191 187 187 182 175 173 171 170 169 167 162 149 155 146 140 140 139 137 127 128 127 135
228 218 221 228 227 222 240 239 243 224 260 191 201 208 223 225 231 243 256 263 153 222 225 234 241 242 245 249 254 247 239 255 251 249 247 254 260 259 230 234 248 248 249 249 246 221 227 190 103 114 186 209 215 131 147 150 154 164 167 176 166 180 193 197 196 185 170 166 168 168 169 168 165 164 164 161 138 131 131 138 129 141 139 134 130 139
223 224 217 234 223 232 231 250 254 266 247 179 209 208 220 219 214 228 238 257 203 206 225 228 240 256 276 295 308 301 311 307 310 308 306 302 302 293 273 241 237 242 247 248 214 162 139 162 173 187 205 50 113 129 134 145 151 171 173 168 180 198 205 193 161 161 167 162 161 164 165 161 164 159 159 142 140 136 134 132 135 132 130 134 138 146
253 270 247 238 240 239 237 237 243 258 265 199 277 214 183 93 234 239 260 306 336 1 12 25 26 20 18 21 7 351 328 331 344 350 342 332 322 316 315 311 304 299 296 41 101 113 105 111 143 150 148 142 128 137 154 157 171 178 169 179 202 210 176 155 165 155 151 158 157 156 157 158 151 150 147 131 132 130 123 119 114 121 117 119 134 147
301 265 218 212 231 238 232 262 275 238 39 357 303 290 340 248 305 351 3 31 45 26 17 5 15 6 12 354 348 341 335 340 345 345 343 342 347 344 340 338 332 321 304 293 289 122 139 160 189 204 192 163 161 162 171 166 178 181 190 199 216 177 159 156 149 153 154 155 155 157 156 154 150 146 144 145 129 129 126 128 118 117 127 138 140 144
294 276 309 300 9 269 231 230 224 60 302 351 29 2 335 308 354 23 20 10 16 31 12 357 351 357 358 351 339 335 332 334 334 339 340 337 338 335 334 335 336 333 323 321 320 277 247 247 223 204 178 171 174 175 168 176 183 189 191 217 184 146 148 148 151 149 152 154 153 150 151 151 148 146 149 146 140 126 125 131 124 123 134 135 140 147
105 18 260 269 305 313 322 338 306 294 314 327 2 335 311 342 22 36 33 26 2 1 9 352 339 336 338 341 329 325 322 324 320 318 322 319 318 318 319 322 320 315 315 315 303 286 239 243 249 243 218 193 175 179 184 183 188 194 212 211 135 161 154 152 152 154 156 156 154 152 150 147 144 138 129 145 145 133 130 128 133 131 146 146 155 162
318 322 307 301 269 307 286 253 272 321 318 323 319 315 291 323 352 24 11 349 349 332 342 317 314 314 312 317 315 315 308 306 310 311 313 313 310 307 305 307 305 304 303 295 287 250 229 242 257 252 228 209 198 192 189 195 191 200 219 155 157 155 159 152 155 159 161 157 154 153 148 144 137 128 139 141 128 120 136 143 149 142 147 154 161 160
287 309 303 277 309 320 291 322 296 303 307 305 304 294 273 336 337 341 336 330 316 316 309 292 277 286 291 289 289 287 293 297 300 300 299 302 303 303 303 299 295 293 290 285 272 252 217 216 229 238 238 240 210 200 203 201 208 217 155 164 157 154 153 158 159 159 158 160 157 154 155 154 151 144 144 138 130 125 131 137 139 140 145 161 160 156
294 322 295 292 288 262 282 292 297 299 287 287 292 296 318 335 326 319 316 312 312 308 310 305 306 295 289 292 290 286 284 284 286 290 294 293 293 296 297 295 293 291 280 257 263 238 218 216 221 231 232 242 239 202 205 201 213 199 162 156 155 153 154 161 167 166 168 164 162 158 161 156 146 146 143 153 148 145 144 151 154 151 162 168 166 155
275 300 280 317 290 294 286 275 267 303 312 291 292 335 318 306 313 314 316 314 307 307 306 307 298 292 295 289 287 288 289 287 286 287 288 293 294 294 294 295 294 290 291 292 275 226 217 226 231 233 237 240 240 188 195 207 205 177 168 162 157 158 162 167 165 160 159 161 160 166 166 162 155 149 141 140 126 102 139 156 161 151 144 153 146 153
268 261 276 290 289 286 286 316 356 327 312 307 296 287 293 313 308 308 315 323 329 329 334 338 341 342 324 305 308 308 307 308 312 313 307 303 300 302 301 301 300 300 298 291 284 269 246 238 239 241 238 242 231 186 209 205 195 176 168 160 163 163 166 166 162 163 167 168 170 165 164 161 150 143 139 137 140 143 130 142 150 153 151 146 158 152
265 277 290 284 297 292 306 306 304 292 288 286 301 316 322 324 328 337 335 329 330 339 343 340 334 331 329 328 330 331 323 321 317 319 314 311 307 306 306 305 305 303 300 298 296 290 269 249 239 241 247 247 220 205 211 203 188 176 173 169 170 172 172 163 165 169 169 171 177 177 161 142 143 146 129 129 137 134 134 143 155 152 150 149 153 154